Sigil TimeFrame

Sigil TimeFrame ⇒ XML

NameTime LeftWindow Opens
Kro Shuk, Doomslayer2d 23:292019-01-13 08:27:00
Ormsul the Putrid1d 12:012019-01-14 19:55:00
Sigil, Lich of Woe1d 03:402019-01-15 04:16:00
King Ashnar, Lord of the Unliving0d 22:012019-01-15 09:55:00
Varsanor, Master of Darkness0d 17:012019-01-15 14:55:00
Lady Chaos, Queen of the Abyss0d 16:222019-01-15 15:34:00
Dreg nor, Keeper of the Infernal Essence0d 15:342019-01-15 16:22:00
Gnorb0d 13:362019-01-15 18:20:00
Terrance, Rebel of Rallis0d 10:092019-01-15 21:47:00
Melt Bane, The Forbidden Demon Dragon0d 10:012019-01-15 21:55:00
Jorun the Blazing Swordsman0d 07:582019-01-15 23:58:00
Crolvak, the Fire Master0d 06:402019-01-16 01:16:00
Hyrak, Bringer of Nightmares0d 06:292019-01-16 01:27:00
Garland, The Lord Keeper0d 05:032019-01-16 02:53:00
Wanhiroeaz the Devourer0d 04:472019-01-16 03:09:00
Gorganus of the Wood0d 04:402019-01-16 03:16:00
Volgan the Living Ironbark0d 03:542019-01-16 04:02:00
Baron Mu, Dark Rider of the Undead0d 02:532019-01-16 05:03:00
Lord Varan0d 02:482019-01-16 05:08:00
Vitkros, Hydra of the Deep0d 02:352019-01-16 05:21:00
Crane0d 02:142019-01-16 05:42:00
Synge, The Red Dragon0d 01:392019-01-16 06:17:00
Crantos, Defender of Ultimation0d 00:372019-01-16 08:34:00
Ag Nabak the Abomination0d 06:032019-01-16 14:00:00
Freezebreed, The Frozen Manipulator0d 07:042019-01-16 15:01:00
Murderface0d 07:382019-01-16 15:35:00
Detox0d 07:422019-01-16 15:39:00
Ebliss, Fallen Angel of Despair0d 08:242019-01-16 16:21:00
Tsort0d 08:502019-01-16 16:47:00
Akkel the Enflamed Warrior0d 11:562019-01-16 19:53:00
Lord Sibannac0d 12:522019-01-16 20:49:00
Bloodchill the Grizzly0d 13:092019-01-16 21:06:00
Zikkir the Dark Archer0d 15:422019-01-16 23:39:00
Tylos, The Lord Master0d 15:552019-01-16 23:52:00
Sylvanna TorLai0d 16:502019-01-17 00:47:00
Grivvek, Protector of the Brood0d 17:402019-01-17 01:37:00
Lord Narada0d 18:272019-01-17 02:24:00
Numerocure, The Black Messenger of Evil0d 19:212019-01-17 03:18:00
Bolkor, the Holy Master0d 20:082019-01-17 04:05:00
Lady Ariella0d 20:502019-01-17 04:47:00
Hackerphage, Protector of the Gateway0d 20:512019-01-17 04:48:00
Sarcrina the Astral Priestess0d 23:132019-01-17 07:10:00
Brutalitar, Lord of the Underworld0d 23:222019-01-17 07:19:00
Nafir, God of Desolation1d 00:172019-01-17 08:14:00
Nessam1d 00:422019-01-17 08:39:00
Rotborn, Eater of the Dead1d 01:162019-01-17 09:13:00
Rancid, Lord of Thugs1d 02:222019-01-17 10:19:00
Threk, King of Lords1d 02:412019-01-17 10:38:00
Mistress of the Sword1d 02:452019-01-17 10:42:00
Ancient Magus Tarkin1d 04:052019-01-17 12:02:00
Howldroid, Tormentor of the Pit1d 05:242019-01-17 13:21:00
Windstrike The Vile1d 05:492019-01-17 13:46:00
Traxodon the Plaguebringer1d 06:482019-01-17 14:45:00
Samatha Dark-Soul1d 06:592019-01-17 14:56:00
Shadow1d 07:002019-01-17 14:57:00
Pinosis1d 07:232019-01-17 15:20:00
Skarthul the Avenged1d 07:552019-01-17 15:52:00
Anvilfist1d 09:092019-01-17 17:06:00
Great Lord Ganeshan1d 10:522019-01-17 18:49:00
Lord Suka1d 16:152019-01-18 00:12:00
Dlanod, the Crazed Chancellor1d 16:222019-01-18 00:19:00
Lord Xordam1d 17:432019-01-18 01:40:00
Balerion, Dragon of Dread1d 20:172019-01-18 04:14:00
Ganja the Stone Golem1d 22:492019-01-18 06:46:00
Old World Drake1d 23:082019-01-18 07:05:00
Kretok, Descendant of Nature1d 23:122019-01-18 07:09:00
Animated Captain1d 23:142019-01-18 07:11:00
The Emerald Assassin2d 03:212019-01-18 11:18:00
Jazzmin, Maiden of Vitality2d 03:302019-01-18 11:27:00
Anguish2d 05:062019-01-18 13:03:00
Smoot the Yeti2d 05:072019-01-18 13:04:00
Archdevil Yirkon2d 06:502019-01-18 14:47:00
Skybrine The Inescapable2d 07:112019-01-18 15:08:00
Straya, the Underworld Ruler2d 10:412019-01-18 18:38:00
Amalgamated Apparition2d 12:242019-01-18 20:21:00
Zertan, The Collector2d 12:552019-01-18 20:52:00
Keeper of Nature2d 13:112019-01-18 21:08:00
Nayark the Mummified Sorcerer2d 23:352019-01-19 07:32:00
Xynak, the Arcane Master3d 04:192019-01-19 12:16:00
Raiyar, the Shadow Master3d 06:122019-01-19 14:09:00
Emperor Neudeus, Controller of the Universe3d 07:162019-01-19 15:13:00
Quiver, The Renegade3d 08:102019-01-19 16:07:00
Nar Zhul, Slayer of All3d 12:272019-01-19 20:24:00
Slashbrood, Devourer of the Blackness3d 22:212019-01-20 06:18:00
Esquin, the Kinetic Master3d 23:152019-01-20 07:12:00
Karvaz, Lord of Alsayic3d 23:372019-01-20 07:34:00
Lacuste of the Swarm4d 14:552019-01-20 22:52:00
Viserion, the Necrodragon4d 19:442019-01-21 03:41:00
Felroc, Overseer of Hellfire4d 20:292019-01-21 04:26:00
Q-SEC Commander5d 02:072019-01-21 10:04:00
Shaik, Servant of Arkron193d 03:312018-07-07 04:25:00
Rook, Hand of Arkron191d 05:212018-07-09 02:35:00
Jade Dragonite40d 02:572018-12-07 04:59:00
Noxious Slug6d 18:182019-01-09 13:38:00
Beast of Cards6d 01:252019-01-10 06:31:00
95 Gods, Last update: 2019-01-16 12:35:01